Weather History for PHMK - March, 2014

Change the Weather History Date:

Friday, March 7, 2014

  Actual Average Record
Temperature  
Mean Temperature 71 °F -  
Max Temperature 78 °F 78 °F 84 °F (1986)
Min Temperature 64 °F 63 °F 53 °F (1987)
Cooling Degree Days 6    
Growing Degree Days 21 (Base 50)    
Moisture  
Dew Point 69 °F    
Average Humidity 95    
Maximum Humidity 100    
Minimum Humidity 78    
Precipitation  
Precipitation 0.97 in - - ()
Sea Level Pressure  
Sea Level Pressure 29.98 in    
Wind  
Wind Speed 8 mph (SW)    
Max Wind Speed 16 mph    
Max Gust Speed 21 mph    
Visibility 8 miles    
Events Rain    
Averages and records for this station are not official NWS values.
T = Trace of Precipitation, MM = Missing Value Source: NWS Daily Summary

Daily Weather History Graph

Daily Weather History Graph

Search for Another Location

Airport or City:

Trip Planner

Search our weather history database for the weather conditions in past years. The results will help you decide how hot, cold, wet, or windy it might be!

Date:

Astronomy

Mar. 07, 2014 Rise Set
Actual Time 6:43 AM HST 6:35 PM HST
Civil Twilight 6:21 AM HST 6:57 PM HST
Nautical Twilight 5:55 AM HST 7:23 PM HST
Astronomical Twilight 5:30 AM HST 7:48 PM HST
Moon 11:30 AM HST (3/7) 12:06 AM HST (3/7)
Length of Visible Light 12h 35m
Length of Day
11h 51m
Waxing Crescent, 44% of the Moon is Illuminated
Mar 7
Waxing Crescent
Mar 8
First Quarter
Mar 16
Full
Mar 23
Last Quarter
Mar 30
New

Hourly Weather History & Observations

Time (HST) Temp. Dew Point Humidity Pressure Visibility Wind Dir Wind Speed Gust Speed Precip Events Conditions
12:02 AM 71.6 °F 69.8 °F 94% 29.98 in 10.0 mi South 5.8 mph - 0.00 in   Mostly Cloudy
12:54 AM 72.0 °F 70.0 °F 93% 29.97 in 10.0 mi South 6.9 mph - 0.00 in   Mostly Cloudy
1:08 AM 71.6 °F 71.6 °F 100% 29.96 in 10.0 mi South 6.9 mph - N/A   Mostly Cloudy
1:18 AM 73.4 °F 71.6 °F 94% 29.96 in 10.0 mi South 8.1 mph - N/A   Mostly Cloudy
1:54 AM 72.0 °F 72.0 °F 100% 29.95 in 10.0 mi SSE 5.8 mph - N/A   Mostly Cloudy
2:31 AM 71.6 °F 71.6 °F 100% 29.94 in 10.0 mi Calm Calm - N/A   Mostly Cloudy
2:41 AM 73.4 °F 73.4 °F 100% 29.94 in 10.0 mi South 3.5 mph - N/A   Mostly Cloudy
2:45 AM 73.4 °F 73.4 °F 100% 29.94 in 10.0 mi Variable 4.6 mph - N/A   Overcast
2:52 AM 71.6 °F 69.8 °F 94% 29.93 in 8.0 mi West 12.7 mph 18.4 mph 0.00 in Rain Light Rain
2:54 AM 70.0 °F 70.0 °F 100% 29.95 in 5.0 mi West 13.8 mph 19.6 mph 0.00 in Rain Heavy Rain
3:04 AM 69.8 °F 69.8 °F 100% 29.94 in 5.0 mi West 11.5 mph - 0.02 in Rain Light Rain
3:15 AM 69.8 °F 69.8 °F 100% 29.94 in 10.0 mi West 10.4 mph 19.6 mph 0.03 in   Overcast
3:54 AM 70.0 °F 68.0 °F 93% 29.95 in 10.0 mi SW 6.9 mph - 0.03 in   Overcast
4:54 AM 71.1 °F 66.9 °F 87% 29.96 in 10.0 mi South 4.6 mph - N/A   Mostly Cloudy
5:54 AM 70.0 °F 70.0 °F 100% 29.98 in 10.0 mi East 3.5 mph - N/A   Mostly Cloudy
6:54 AM 71.1 °F 71.1 °F 100% 30.00 in 10.0 mi SE 4.6 mph - N/A   Mostly Cloudy
7:54 AM 73.0 °F 71.1 °F 93% 30.01 in 10.0 mi South 6.9 mph - N/A   Mostly Cloudy
8:54 AM 75.0 °F 71.1 °F 87% 30.02 in 10.0 mi SSE 11.5 mph - N/A   Partly Cloudy
9:54 AM 75.0 °F 72.0 °F 90% 30.03 in 10.0 mi SSE 10.4 mph - N/A   Scattered Clouds
10:54 AM 77.0 °F 71.1 °F 82% 30.01 in 10.0 mi South 15.0 mph - N/A   Scattered Clouds
11:54 AM 78.1 °F 72.0 °F 81% 30.00 in 10.0 mi SSE 15.0 mph - N/A   Scattered Clouds
12:26 PM 78.8 °F 71.6 °F 78% 29.98 in 10.0 mi SSE 15.0 mph - N/A   Mostly Cloudy
12:54 PM 78.1 °F 72.0 °F 81% 29.99 in 10.0 mi SSE 13.8 mph - N/A   Mostly Cloudy
1:54 PM 77.0 °F 72.0 °F 84% 29.97 in 10.0 mi South 13.8 mph 18.4 mph 0.01 in   Mostly Cloudy
2:54 PM 77.0 °F 71.1 °F 82% 29.95 in 10.0 mi SSE 12.7 mph - N/A   Mostly Cloudy
3:27 PM 75.2 °F 69.8 °F 83% 29.94 in 10.0 mi SSE 10.4 mph - N/A   Overcast
3:54 PM 75.9 °F 72.0 °F 87% 29.94 in 10.0 mi SSE 11.5 mph - N/A   Overcast
4:22 PM 73.4 °F 69.8 °F 88% 29.94 in 10.0 mi SSW 4.6 mph - 0.01 in Rain Light Rain
4:54 PM 73.0 °F 70.0 °F 90% 29.98 in 10.0 mi Variable 4.6 mph - 0.01 in   Overcast
5:02 PM 69.8 °F 69.8 °F 100% 29.97 in 2.0 mi NW 8.1 mph 16.1 mph 0.00 in Rain Light Rain
5:05 PM 69.8 °F 69.8 °F 100% 29.97 in 1.2 mi NW 10.4 mph - 0.04 in Rain Heavy Rain
5:09 PM 69.8 °F 69.8 °F 100% 29.97 in 0.8 mi WNW 16.1 mph 20.7 mph 0.07 in Rain Heavy Rain
5:27 PM 66.2 °F 66.2 °F 100% 29.98 in 1.0 mi NW 16.1 mph - 0.31 in Rain Heavy Rain
5:42 PM 66.2 °F 66.2 °F 100% 29.98 in 1.2 mi NW 15.0 mph - 0.48 in Rain Heavy Rain
5:50 PM 66.2 °F 66.2 °F 100% 29.98 in 1.5 mi NW 15.0 mph - 0.54 in Rain Heavy Rain
5:54 PM 66.0 °F 66.0 °F 100% 30.00 in 1.5 mi NW 13.8 mph - 0.57 in Rain Heavy Rain
6:00 PM 66.2 °F 66.2 °F 100% 29.99 in 1.8 mi NW 12.7 mph - 0.04 in Rain Heavy Rain
6:03 PM 66.2 °F 66.2 °F 100% 29.99 in 2.0 mi NNW 13.8 mph - 0.06 in Rain Heavy Rain
6:21 PM 64.4 °F 64.4 °F 100% 29.99 in 2.5 mi NNW 12.7 mph - 0.14 in Rain Heavy Rain
6:42 PM 66.2 °F 66.2 °F 100% 29.99 in 4.0 mi North 10.4 mph - 0.22 in Rain Rain
6:54 PM 66.0 °F 66.0 °F 100% 30.01 in 7.0 mi North 9.2 mph - 0.23 in Rain Light Rain
7:54 PM 66.0 °F 66.0 °F 100% 30.03 in 10.0 mi North 5.8 mph - 0.01 in Rain Light Rain
8:54 PM 66.9 °F 66.9 °F 100% 30.05 in 10.0 mi Calm Calm - 0.00 in Rain Light Rain
9:54 PM 66.9 °F 66.9 °F 100% 30.05 in 8.0 mi Calm Calm - 0.02 in Rain Light Rain
10:54 PM 66.0 °F 66.0 °F 100% 30.04 in 5.0 mi Calm Calm - 0.06 in Rain Rain
11:54 PM 66.0 °F 66.0 °F 100% 30.06 in 10.0 mi Calm Calm - 0.03 in Rain Light Rain